Погода в Абзаково

Россия / Республика Башкортостан     53°49′53″N   58°35′27″E
темп.,
°C
ветер,
м/с
пор.,
м/с
влажн.,
%
обл.,
%
осадки,
мм/ч
давл.,
гПа
погр.,
м
25 февраля, чт
чт2523:00−27зсз229495 0.1 102225
02:00−27зсз229579 0.0 102531
05:00−29зсз229652 0.0 102823
08:00−30зсз22940 0.0 103022
11:00−22зсз22840 0.0 1031159
14:00−15зсз12720 0.0 1030447
17:00−15зюз13770 0.0 1030592
20:00−22з12910 0.0 103120
26 февраля, пт
пт2623:00−24з11940 0.0 103120
02:00−25з11940 0.0 103020
05:00−27з11880 0.0 103019
08:00−27юз11790 0.0 102920
11:00−19ююв23748 0.0 1027231
14:00−16юв238683 0.0 1025385
17:00−18юв229588 0.0 1024238
20:00−25юв2210089 0.0 102419
27 февраля, сб
сб2723:00−26ююв2210094 0.1 102425
02:00−26ююв2210099 0.0 102128
05:00−26юв22100100 0.1 101933
08:00−25вюв2299100 0.1 101598
11:00−22вюв3398100 0.8 1013226
14:00−19вюв2396100 2.0 1009295
17:00−16в2294100 2.5 1007244
20:00−17всв1197100 0.2 100623
28 февраля, вс
вс2823:00−16всв1197100 0.5 100520
02:00−14ююз1296100 0.1 100420
05:00−10ююз2295100 0.1 100436
08:00−8юз1296100 0.1 100340
11:00−4ююз2493100 0.2 1003365
14:00−2юз2491100 0.3 1003606
17:00−2зюз2588100 0.7 1004669
20:00−5зюз2296100 0.1 100533
1 марта, пн
пн123:00−6зюз1297100 0.3 100726
02:00−7з119799 0.3 100821
05:00−11ююз119891 0.4 101021
08:00−11ююз119891 0.1 101221
11:00−6ю119494 0.1 1013243
14:00−3ююз1390100 0.1 1013510
17:00−4зюз0295100 0.6 1014282
20:00−10зсз129798 0.3 101422